Afton, WI

7:28 AM CST on February 19, 2017 (GMT -0600)
Rock County

Weather History for KJVL - June, 2013

Change the Weather History Date:

Saturday, June 22, 2013

  Actual Average Record
Temperature  
Mean Temperature 74 °F -  
Max Temperature 82 °F 76 °F 97 °F (1988)
Min Temperature 66 °F 56 °F 42 °F (1992)
Cooling Degree Days 9    
Growing Degree Days 24 (Base 50)    
Moisture  
Dew Point 65 °F    
Average Humidity 81    
Maximum Humidity 94    
Minimum Humidity 61    
Precipitation  
Precipitation 1.78 in - - ()
Sea Level Pressure  
Sea Level Pressure 30.01 in    
Wind  
Wind Speed 9 mph (SSW)    
Max Wind Speed 21 mph    
Max Gust Speed 32 mph    
Visibility 9 miles    
Events Rain    
Averages and records for this station are not official NWS values.
T = Trace of Precipitation, MM = Missing Value Source: NWS Daily Summary

Daily Weather History Graph

Daily Weather History Graph

Search for Another Location

Airport or City:

Trip Planner

Search our weather history database for the weather conditions in past years. The results will help you decide how hot, cold, wet, or windy it might be!

Date:

Astronomy

Jun. 22, 2013 Rise Set
Actual Time 5:18 AM CDT 8:37 PM CDT
Civil Twilight 4:43 AM CDT 9:12 PM CDT
Nautical Twilight 3:58 AM CDT 9:58 PM CDT
Astronomical Twilight 3:02 AM CDT 10:53 PM CDT
Moon 7:50 PM CDT (6/22) 4:32 AM CDT (6/22)
Length of Visible Light 16h 29m
Length of Day
15h 18m
Waxing Gibbous, 99% of the Moon is Illuminated
Jun 22
Waxing Gibbous
Jun 23
Full
Jun 29
Last Quarter
Jul 8
New
Jul 15
First Quarter

Hourly Weather History & Observations

Time (CDT) Temp. Heat Index Dew Point Humidity Pressure Visibility Wind Dir Wind Speed Gust Speed Precip Events Conditions
12:15 AM 69.8 °F - 64.4 °F 83% 30.02 in 10.0 mi NNE 8.1 mph - N/A   Mostly Cloudy
12:35 AM 71.6 °F - 64.4 °F 78% 30.02 in 10.0 mi North 20.7 mph 32.2 mph N/A   Overcast
12:55 AM 68.0 °F - 62.6 °F 83% 30.06 in 1.2 mi NNE 12.7 mph 20.7 mph 0.61 in Rain Heavy Rain
1:15 AM 68.0 °F - 62.6 °F 83% 30.07 in 1.8 mi West 8.1 mph - 0.49 in Rain Heavy Rain
1:35 AM 66.2 °F - 62.6 °F 88% 30.01 in 4.0 mi SSW 6.9 mph - 0.79 in Rain Heavy Rain
1:55 AM 66.2 °F - 62.6 °F 88% 29.99 in 5.0 mi SSW 9.2 mph - 0.94 in Rain Heavy Rain
2:15 AM 66.2 °F - 62.6 °F 88% 30.00 in 7.0 mi West 8.1 mph - 0.03 in Rain Rain
2:35 AM 66.2 °F - 62.6 °F 88% 29.99 in 7.0 mi South 9.2 mph - 0.07 in Rain Rain
2:55 AM 66.2 °F - 62.6 °F 88% 29.97 in 7.0 mi South 15.0 mph - 0.10 in Rain Light Rain
3:15 AM 66.2 °F - 62.6 °F 88% 30.01 in 10.0 mi NW 5.8 mph - N/A   Light Drizzle
3:35 AM 66.2 °F - 62.6 °F 88% 30.01 in 10.0 mi SSW 6.9 mph - N/A Rain Light Rain
3:55 AM 66.2 °F - 62.6 °F 88% 30.01 in 10.0 mi South 5.8 mph - 0.02 in Rain Light Rain
4:15 AM 66.2 °F - 62.6 °F 88% 30.02 in 10.0 mi Calm Calm - 0.01 in Rain Light Rain
4:35 AM 66.2 °F - 62.6 °F 88% 30.03 in 10.0 mi Calm Calm - 0.02 in Rain Rain
4:55 AM 66.2 °F - 62.6 °F 88% 30.05 in 10.0 mi WSW 4.6 mph - 0.03 in Rain Light Rain
5:15 AM 66.2 °F - 62.6 °F 88% 30.07 in 7.0 mi WSW 5.8 mph - 0.03 in Rain Rain
5:35 AM 66.2 °F - 62.6 °F 88% 30.08 in 7.0 mi WSW 4.6 mph - 0.08 in Rain Rain
5:45 AM 66.2 °F - 64.4 °F 94% 30.08 in 7.0 mi Calm Calm - N/A Rain Rain
8:45 AM 69.8 °F - 66.2 °F 88% 30.06 in 10.0 mi Calm Calm - N/A   Clear
9:45 AM 69.8 °F - 66.2 °F 88% 30.12 in 10.0 mi West 18.4 mph 26.5 mph N/A   Mostly Cloudy
10:45 AM 71.6 °F - 64.4 °F 78% 30.12 in 10.0 mi NW 9.2 mph - N/A Rain Light Rain
11:45 AM 73.4 °F - 66.2 °F 78% 29.93 in 10.0 mi East 19.6 mph - N/A   Mostly Cloudy
12:45 PM 77.0 °F - 66.2 °F 69% 29.99 in 10.0 mi SSE 16.1 mph - N/A   Clear
1:45 PM 78.8 °F - 66.2 °F 65% 30.01 in 10.0 mi SSE 16.1 mph 23.0 mph N/A   Clear
2:45 PM 78.8 °F - 66.2 °F 65% 29.99 in 10.0 mi SSW 17.3 mph 25.3 mph N/A   Clear
3:45 PM 80.6 °F 82.7 °F 66.2 °F 61% 29.95 in 10.0 mi South 12.7 mph - N/A   Clear
4:45 PM 80.6 °F 83.9 °F 69.8 °F 70% 29.93 in 10.0 mi South 12.7 mph - N/A   Clear
5:45 PM 82.4 °F 87.2 °F 71.6 °F 70% 29.95 in 10.0 mi South 10.4 mph - N/A   Partly Cloudy
6:45 PM 80.6 °F 84.6 °F 71.6 °F 74% 29.95 in 10.0 mi South 8.1 mph - N/A   Scattered Clouds
8:45 PM 78.8 °F - 69.8 °F 74% 29.95 in 10.0 mi South 9.2 mph - N/A   Partly Cloudy
9:15 PM 77.0 °F - 69.8 °F 78% 29.97 in 10.0 mi South 8.1 mph - N/A   Clear
9:35 PM 77.0 °F - 68.0 °F 74% 29.98 in 10.0 mi SSE 5.8 mph - N/A   Clear
9:55 PM 75.2 °F - 69.8 °F 83% 29.99 in 10.0 mi SE 5.8 mph - N/A   Clear
10:15 PM 73.4 °F - 68.0 °F 83% 30.00 in 10.0 mi Calm Calm - N/A   Clear
10:35 PM 73.4 °F - 69.8 °F 88% 30.01 in 7.0 mi NE 3.5 mph - N/A   Mostly Cloudy
10:55 PM 73.4 °F - 69.8 °F 88% 30.01 in 7.0 mi ENE 5.8 mph - N/A   Overcast
11:15 PM 71.6 °F - 64.4 °F 78% 30.01 in 10.0 mi Calm Calm - N/A   Mostly Cloudy
11:35 PM 71.6 °F - 62.6 °F 73% 30.05 in 10.0 mi North 8.1 mph - N/A   Mostly Cloudy
11:55 PM 71.6 °F - 62.6 °F 73% 30.05 in 10.0 mi NNE 3.5 mph - N/A   Overcast